Location: Neuvy Saint Sepulchre
(46.5953°N, 1.8122°E)
Time: 09:25:55
(UTC+02:00)

ISS - Pass Details

Date: 26 March 2024
Orbit: 413 x 419 km, 51.6° (Epoch: 13 April)

Event Time Altitude Azimuth Distance (km) Brightness Sun altitude
Rises 19:48:15 0° 293° (WNW) 2,363 2.1 -6.6°
Reaches altitude 10° 19:50:25 10° 301° (WNW) 1,500 0.4 -7.0°
Maximum altitude 19:53:38 41° 13° (NNE) 625 -2.9 -7.5°
Enters shadow 19:56:51 10° 85° (E) 1,501 -1.6 -8.1°
